Aérodrome :
LOGIN :

S'inscrire | Disclaimer

   EN    FR    IT 

 










Légende :    VFR   VFR Marginal   IFR   IFR Intensif   IFR Très Intensif
Visi : 
Plafond : 
>= 8 km
>= 3000ft
5 à 8 km
1000 à 3000 ft
1500m à 5 km
500 à 1000 ft
800 à 1500m
200 à 500 ft
< 800m
< 200 ft
Symboles :   Orages  Brouillard  Fortes neiges  Fortes précipitations  Vent > 20 kt
SIGMETs :   Divers  Orages  Givrage  Turbulence  Onde Orograph.  Cendres Volcan.







- Altitude de l'aérodrome : 863 ft
- Code IATA : ZAZ


LEZG - Zaragoza Aragon

DERNIER METAR :
  • 211330Z 10002KT 9999 FEW040 16/M01 Q1027

METARs EXPIRÉS :
  • 211300Z VRB02KT 9999 FEW040 15/M01 Q1028
  • 211230Z 33003KT 9999 FEW040 14/M00 Q1028
  • 211200Z 34003KT 9999 FEW040 14/M00 Q1029
  • 211130Z 35003KT CAVOK 13/01 Q1029
  • 211100Z 29005KT CAVOK 12/01 Q1029

TAF TAF LEZG
Valide du 21 à 12h jusqu'au 22 à 12h UTC


211100Z 2112/2212 29009KT CAVOK TX18/2114Z TN04/2206Z
BECMG 2112/2114 VRB04KT
TEMPO 2114/2118 13006KT
TEMPO 2118/2121 09004KT
Pas de NOTAMs connus pour ce terrain.



MET'MAP, la Météo Aéronautique d'un coup d'oeil ! - Copyright ORBIFLY Décembre 2007 - Disclaimer

ORBIFLY MET'MAP TEAM :

Programmation & Développement : Alexandra Zaïnal
Conception & Développement : Baudouin d'Aumeries
Co-Programmation & Développement : Marc-Olivier Méhu
Soutien technique & logistique : Manuel Goepfert

Contact : metmap@orbifly.com




SOURCES & CREDITS :

   NOAA